Date String (YYYY-MM-DD hh:mm:ss) UTC,Instrument flags,Ambient pressure (hPa),Sample flow (lpm),Bypass flow (lpm),Sample temperature (°C),Ambient temperature (°C),ASC tube jacket temperature (°C),LED temperature (°C),Box temperature (°C),Sample RH (%),Span deviation,Mass concentration (μg/m³),Mass concentration (μg/m³),Mass concentration (μg/m³)
DateTimeUTC,F1_M11,P_M11,Q1_M11,Q2_M11,T1_M11,T2_M11,T3_M11,T4_M11,T5_M11,U1_M11,ZSPAN_M11,X0_M11,X2_M11,X1_M11
2022-01-19 18:00:00,,0831.6,5.01,0.00,22.3,22.3,00.0,31.3,23.9,11.7,0000.0,0005.18,0003.81,0003.71
2022-01-19 18:01:00,,0831.7,4.99,0.00,22.2,22.1,00.0,31.3,23.9,11.7,0000.0,0005.11,0003.78,0003.69
2022-01-19 18:02:00,,0831.6,5.01,0.00,22.2,21.9,00.0,31.3,23.8,11.7,0000.0,0005.04,0003.75,0003.67
2022-01-19 18:03:00,,0831.6,4.99,0.00,22.1,21.7,00.0,31.3,23.7,11.8,0000.0,0005.03,0003.74,0003.64
2022-01-19 18:04:00,,0831.6,5.00,0.00,22.1,21.6,00.0,31.2,23.7,11.8,0000.0,0004.97,0003.71,0003.61
2022-01-19 18:05:00,,0831.6,5.00,0.00,22.0,21.5,00.0,31.2,23.6,11.8,0000.0,0004.82,0003.66,0003.57
2022-01-19 18:06:00,,0831.6,5.00,0.00,22.0,21.4,00.0,31.2,23.5,11.9,0000.0,0004.72,0003.62,0003.53
2022-01-19 18:07:00,,0831.6,4.99,0.00,21.9,21.3,00.0,31.2,23.5,11.9,0000.0,0004.75,0003.62,0003.52
2022-01-19 18:08:00,,0831.6,5.01,0.00,21.9,21.3,00.0,31.1,23.4,12.0,0000.0,0004.68,0003.62,0003.53
2022-01-19 18:09:00,,0831.6,5.00,0.00,22.0,21.9,00.0,31.1,23.7,11.9,0000.0,0004.67,0003.63,0003.55
2022-01-19 18:10:00,,0831.7,4.99,0.00,22.1,22.7,00.0,31.2,24.0,11.8,0000.0,0004.64,0003.63,0003.56
2022-01-19 18:11:00,,0831.7,5.00,0.00,22.3,23.1,00.0,31.2,24.2,11.7,0000.0,0004.62,0003.62,0003.55
2022-01-19 18:12:00,,0831.7,5.00,0.00,22.3,22.8,00.0,31.2,24.1,11.7,0000.0,0004.60,0003.60,0003.53
2022-01-19 18:13:00,,0831.6,5.00,0.00,22.3,22.5,00.0,31.2,24.0,11.7,0000.0,0004.53,0003.57,0003.50
2022-01-19 18:14:00,,0831.6,4.99,0.00,22.2,22.2,00.0,31.2,23.9,11.8,0000.0,0004.44,0003.53,0003.47
2022-01-19 18:15:00,,0831.6,5.01,0.00,22.2,22.0,00.0,31.2,23.8,11.8,0000.0,0004.34,0003.48,0003.44
2022-01-19 18:16:00,,0831.6,5.01,0.00,22.1,21.8,00.0,31.2,23.7,11.8,0000.0,0004.32,0003.47,0003.43
2022-01-19 18:17:00,,0831.7,4.99,0.00,22.0,21.7,00.0,31.2,23.6,11.9,0000.0,0004.32,0003.46,0003.41
2022-01-19 18:18:00,,0831.7,4.99,0.00,22.0,21.5,00.0,31.2,23.5,11.9,0000.0,0004.21,0003.41,0003.37
2022-01-19 18:19:00,,0831.7,5.02,0.00,21.9,21.4,00.0,31.1,23.5,12.0,0000.0,0004.14,0003.36,0003.32
2022-01-19 18:20:00,,0831.7,4.99,0.00,21.9,21.3,00.0,31.1,23.4,12.0,0000.0,0004.06,0003.31,0003.26
2022-01-19 18:21:00,,0831.7,5.01,0.00,21.8,21.2,00.0,31.1,23.3,12.1,0000.0,0004.01,0003.27,0003.21
2022-01-19 18:22:00,,0831.6,4.99,0.00,21.8,21.2,00.0,31.0,23.3,12.1,0000.0,0003.95,0003.23,0003.18
2022-01-19 18:23:00,,0831.6,5.00,0.00,21.9,21.9,00.0,31.1,23.6,12.0,0000.0,0003.96,0003.21,0003.14
2022-01-19 18:24:00,,0831.6,5.00,0.00,22.0,22.7,00.0,31.1,23.9,11.9,0000.0,0003.95,0003.19,0003.12
2022-01-19 18:25:00,,0831.6,5.01,0.00,22.2,22.9,00.0,31.1,24.1,11.8,0000.0,0003.93,0003.17,0003.07
2022-01-19 18:26:00,,0831.6,5.00,0.00,22.2,22.6,00.0,31.1,24.0,11.7,0000.0,0003.93,0003.16,0003.03
2022-01-19 18:27:00,,0831.6,5.00,0.00,22.1,22.3,00.0,31.1,23.9,11.8,0000.0,0003.97,0003.15,0002.98
2022-01-19 18:28:00,,0831.6,4.99,0.00,22.1,22.1,00.0,31.1,23.8,11.8,0000.0,0004.02,0003.15,0002.97
2022-01-19 18:29:00,,0831.6,5.02,0.00,22.1,21.9,00.0,31.1,23.7,11.8,0000.0,0004.02,0003.15,0002.96
2022-01-19 18:30:00,,0831.6,4.99,0.00,22.0,21.8,00.0,31.1,23.7,11.8,0000.0,0003.96,0003.13,0002.94
2022-01-19 18:31:00,,0831.6,4.99,0.00,22.0,21.6,00.0,31.1,23.6,11.8,0000.0,0003.96,0003.13,0002.95
2022-01-19 18:32:00,,0831.6,4.99,0.00,21.9,21.5,00.0,31.1,23.5,11.8,0000.0,0003.96,0003.13,0002.93
2022-01-19 18:33:00,,0831.6,5.01,0.00,21.9,21.4,00.0,31.1,23.4,11.8,0000.0,0003.97,0003.13,0002.93
2022-01-19 18:34:00,,0831.6,5.00,0.00,21.9,21.3,00.0,31.0,23.4,11.8,0000.0,0003.91,0003.12,0002.94
2022-01-19 18:35:00,,0831.6,4.98,0.00,21.8,21.2,00.0,31.0,23.4,11.9,0000.0,0003.95,0003.14,0002.97
2022-01-19 18:36:00,,0831.6,5.02,0.00,21.8,21.4,00.0,31.0,23.4,11.9,0000.0,0004.02,0003.16,0003.00
2022-01-19 18:37:00,,0831.6,5.00,0.00,21.9,22.1,00.0,31.0,23.7,11.8,0000.0,0004.06,0003.17,0003.01
2022-01-19 18:38:00,,0831.6,5.00,0.00,22.1,22.9,00.0,31.0,24.0,11.7,0000.0,0003.97,0003.14,0002.99
2022-01-19 18:39:00,,0831.6,5.01,0.00,22.2,23.1,00.0,31.1,24.2,11.6,0000.0,0003.85,0003.09,0002.93
2022-01-19 18:40:00,,0831.5,4.99,0.00,22.2,22.7,00.0,31.1,24.1,11.6,0000.0,0003.75,0003.04,0002.88
2022-01-19 18:41:00,,0831.5,4.99,0.00,22.2,22.4,00.0,31.1,23.9,11.6,0000.0,0003.68,0002.97,0002.82
2022-01-19 18:42:00,,0831.4,5.01,0.00,22.1,22.2,00.0,31.1,23.8,11.6,0000.0,0003.63,0002.91,0002.75
2022-01-19 18:43:00,,0831.5,4.99,0.00,22.1,22.0,00.0,31.1,23.8,11.6,0000.0,0003.62,0002.87,0002.72
2022-01-19 18:44:00,,0831.4,4.99,0.00,22.1,21.8,00.0,31.1,23.7,11.6,0000.0,0003.57,0002.82,0002.67
2022-01-19 18:45:00,,0831.4,5.01,0.00,22.0,21.6,00.0,31.1,23.6,11.7,0000.0,0003.65,0002.79,0002.63
2022-01-19 18:46:00,,0831.4,4.99,0.00,22.0,21.5,00.0,31.1,23.6,11.7,0000.0,0003.63,0002.76,0002.59
2022-01-19 18:47:00,,0831.4,5.02,0.00,21.9,21.4,00.0,31.0,23.5,11.8,0000.0,0003.56,0002.72,0002.55
2022-01-19 18:48:00,,0831.4,4.99,0.00,21.9,21.3,00.0,31.0,23.4,11.8,0000.0,0003.47,0002.67,0002.51
2022-01-19 18:49:00,,0831.4,5.00,0.00,21.8,21.2,00.0,31.0,23.3,11.8,0000.0,0003.47,0002.67,0002.51
2022-01-19 18:50:00,,0831.4,4.99,0.00,21.8,21.2,00.0,31.0,23.3,11.9,0000.0,0003.55,0002.72,0002.55
2022-01-19 18:51:00,,0831.5,5.01,0.00,21.8,21.7,00.0,31.0,23.5,11.9,0000.0,0003.60,0002.76,0002.56
2022-01-19 18:52:00,,0831.6,4.99,0.00,22.0,22.5,00.0,31.0,23.8,11.7,0000.0,0003.65,0002.80,0002.59
2022-01-19 18:53:00,,0831.6,5.01,0.00,22.1,23.1,00.0,31.1,24.1,11.6,0000.0,0003.65,0002.82,0002.64
2022-01-19 18:54:00,,0831.5,5.01,0.00,22.2,22.8,00.0,31.1,24.0,11.6,0000.0,0003.66,0002.87,0002.69
2022-01-19 18:55:00,,0831.4,4.99,0.00,22.1,22.5,00.0,31.1,23.9,11.6,0000.0,0003.68,0002.92,0002.72
2022-01-19 18:56:00,,0831.4,5.00,0.00,22.1,22.2,00.0,31.1,23.8,11.6,0000.0,0003.55,0002.90,0002.72
2022-01-19 18:57:00,,0831.4,4.99,0.00,22.1,22.0,00.0,31.1,23.7,11.6,0000.0,0003.49,0002.87,0002.72
2022-01-19 18:58:00,,0831.5,5.02,0.00,22.0,21.8,00.0,31.1,23.6,11.6,0000.0,0003.43,0002.84,0002.70
2022-01-19 18:59:00,,0831.5,5.00,0.00,22.0,21.6,00.0,31.1,23.5,11.6,0000.0,0003.42,0002.82,0002.69
